Weather History for South Lake Tahoe, CA

Change the Weather History Date:

Friday, May 9, 2014

  Actual Average Record
Temperature  
Mean Temperature 48 °F 46 °F  
Max Temperature 57 °F 62 °F 74 °F (2001)
Min Temperature 39 °F 31 °F 15 °F (1979)
Degree Days  
Heating Degree Days 17 19  
Month to date heating degree days 148 179  
Since 1 July heating degree days 6189 7069  
Cooling Degree Days 0 0  
Month to date cooling degree days 0 0  
Year to date cooling degree days 0 0  
Moisture  
Dew Point 31 °F    
Average Humidity 54    
Maximum Humidity 76    
Minimum Humidity 32    
Precipitation  
Precipitation 0.02 in - 1.01 in (1963)
Month to date precipitation 0.21  
Year to date precipitation 11.31  
Sea Level Pressure  
Sea Level Pressure 30.02 in    
Wind  
Wind Speed 10 mph (SSW)    
Max Wind Speed 24 mph    
Max Gust Speed 31 mph    
Visibility 10 miles    
Events Rain    
T = Trace of Precipitation, MM = Missing Value Source: NWS Daily Summary

Daily Weather History Graph

Daily Weather History Graph

Search for Another Location

Airport:

Trip Planner

Search our weather history database for the weather conditions in past years. The results will help you decide how hot, cold, wet, or windy it might be!

Date:

Astronomy

May. 09, 2014 Rise Set
Actual Time 5:53 AM PDT 8:00 PM PDT
Civil Twilight 5:23 AM PDT 8:29 PM PDT
Nautical Twilight 4:47 AM PDT 9:06 PM PDT
Astronomical Twilight 4:08 AM PDT 9:45 PM PDT
Moon 3:05 PM PDT (5/9) 2:55 AM PDT (5/9)
Length of Visible Light 15h 06m
Length of Day
14h 07m
Waxing Gibbous, 74% of the Moon is Illuminated
May 9
Waxing Gibbous
May 14
Full
May 21
Last Quarter
May 28
New
Jun 5
First Quarter

Hourly Weather History & Observations

Time (PDT) Temp. Windchill Dew Point Humidity Pressure Visibility Wind Dir Wind Speed Gust Speed Precip Events Conditions
12:53 AM 43.0 °F 40.3 °F 36.0 °F 76% 29.96 in 9.0 mi ESE 4.6 mph - 0.01 in Rain Light Rain
2:53 AM 42.1 °F 35.2 °F 33.1 °F 70% 29.99 in 10.0 mi South 12.7 mph 21.9 mph 0.00 in Rain Light Rain
3:53 AM 42.1 °F 36.1 °F 35.1 °F 76% 29.98 in 9.0 mi SSE 10.4 mph - 0.01 in Rain Light Rain
5:19 AM 43.0 °F 39.5 °F 34.0 °F 71% 30.08 in 10.0 mi South 5.8 mph - 0.00 in   Mostly Cloudy
5:53 AM 43.0 °F 38.8 °F 34.0 °F 71% 29.99 in 10.0 mi South 6.9 mph - 0.00 in   Overcast
6:03 AM 43.0 °F 38.2 °F 34.0 °F 71% 30.08 in 10.0 mi South 8.1 mph - N/A   Overcast
6:53 AM 43.0 °F 38.8 °F 35.1 °F 74% 30.00 in 10.0 mi SSW 6.9 mph - 0.00 in Rain Light Rain
7:53 AM 44.1 °F 37.4 °F 34.0 °F 68% 30.02 in 10.0 mi SSW 13.8 mph 23.0 mph 0.00 in   Partly Cloudy
8:53 AM 46.0 °F 39.0 °F 32.0 °F 58% 30.02 in 10.0 mi SSW 17.3 mph 25.3 mph N/A   Clear
9:53 AM 48.0 °F - 32.0 °F 54% 30.01 in 10.0 mi SSW 11.5 mph 27.6 mph N/A   Clear
10:53 AM 51.1 °F - 30.0 °F 44% 30.02 in 10.0 mi SSW 23.0 mph 28.8 mph N/A   Clear
11:53 AM 51.1 °F - 30.9 °F 46% 30.02 in 10.0 mi SSW 17.3 mph 26.5 mph N/A   Clear
12:53 PM 54.0 °F - 28.0 °F 37% 30.02 in 10.0 mi SW 8.1 mph 20.7 mph N/A   Clear
1:53 PM 55.0 °F - 27.0 °F 34% 30.03 in 10.0 mi SSW 11.5 mph 26.5 mph N/A   Partly Cloudy
2:53 PM 54.0 °F - 28.0 °F 37% 30.03 in 10.0 mi South 18.4 mph 26.5 mph N/A   Mostly Cloudy
3:53 PM 55.0 °F - 28.0 °F 35% 30.01 in 10.0 mi South 19.6 mph 24.2 mph N/A   Mostly Cloudy
4:53 PM 54.0 °F - 27.0 °F 35% 30.01 in 10.0 mi South 16.1 mph 24.2 mph N/A   Mostly Cloudy
5:53 PM 52.0 °F - 26.1 °F 37% 30.02 in 10.0 mi South 10.4 mph 21.9 mph N/A   Partly Cloudy
6:53 PM 50.0 °F - 27.0 °F 41% 30.02 in 10.0 mi SSW 11.5 mph 23.0 mph N/A   Clear
7:53 PM 46.9 °F - 30.0 °F 52% 30.04 in 10.0 mi SSW 10.4 mph - N/A   Clear
8:53 PM 45.0 °F 39.7 °F 32.0 °F 60% 30.04 in 10.0 mi SW 10.4 mph - N/A   Clear
9:53 PM 44.1 °F 37.4 °F 30.9 °F 60% 30.05 in 10.0 mi SSW 13.8 mph - N/A   Clear
10:53 PM 43.0 °F 38.2 °F 30.9 °F 62% 30.04 in 10.0 mi SW 8.1 mph - N/A   Clear
11:53 PM 41.0 °F 36.4 °F 26.1 °F 55% 30.04 in 10.0 mi SW 6.9 mph - N/A   Clear